This is the latest recevied weather packets stored in our database for station/object N0ZJT. If no packets are shown the sender has not sent any weather packets the latest 10 day(s).
| Time | Temp. | Humidity | Pressure | Rain* | Wind** | Luminosity | Snow |
|---|---|---|---|---|---|---|---|
| 1777501730 | 13.89° C | 32% | 978.3 hPa | 0 mm | - | - | - |
| 1777500890 | 14.44° C | 29% | 978.3 hPa | 0 mm | - | - | - |
| 1777499930 | 14.44° C | 30% | 978.3 hPa | 0 mm | - | - | - |
| 1777499090 | 15° C | 30% | 978.1 hPa | 0 mm | - | - | - |
| 1777498130 | 15° C | 32% | 978.2 hPa | 0 mm | - | - | - |
| 1777497290 | 14.44° C | 31% | 978.3 hPa | 0 mm | - | - | - |
| 1777496330 | 14.44° C | 29% | 978.5 hPa | 0 mm | - | - | - |
| 1777495490 | 15° C | 31% | 978.4 hPa | 0 mm | - | - | - |
| 1777494530 | 15.56° C | 30% | 978.5 hPa | 0 mm | - | - | - |
| 1777493690 | 15° C | 29% | 978.6 hPa | 0 mm | - | - | - |
| 1777492730 | 16.11° C | 30% | 978.7 hPa | 0 mm | - | - | - |
| 1777491890 | 16.11° C | 32% | 978.5 hPa | 0 mm | - | - | - |
| 1777490930 | 15° C | 34% | 978.7 hPa | 0 mm | - | - | - |
| 1777490090 | 15.56° C | 32% | 978.7 hPa | 0 mm | - | - | - |
| 1777489130 | 15.56° C | 32% | 978.9 hPa | 0 mm | - | - | - |
| 1777488290 | 15° C | 34% | 979 hPa | 0 mm | - | - | - |
| 1777487330 | 14.44° C | 38% | 979 hPa | 0 mm | - | - | - |
| 1777486490 | 15° C | 34% | 978.8 hPa | 0 mm | - | - | - |
| 1777485530 | 14.44° C | 35% | 979 hPa | 0 mm | - | - | - |
| 1777484690 | 13.89° C | 36% | 979 hPa | 0 mm | - | - | - |
| 1777483730 | 13.89° C | 38% | 979.1 hPa | 0 mm | - | - | - |
| 1777482890 | 13.33° C | 38% | 979.3 hPa | 0 mm | - | - | - |
| 1777481930 | 13.33° C | 37% | 979.4 hPa | 0 mm | - | - | - |
| 1777481090 | 12.78° C | 39% | 979.4 hPa | 0 mm | - | - | - |
| 1777480130 | 12.22° C | 41% | 979.5 hPa | 0 mm | - | - | - |
* Rain latest hour (hover to see other rain measurements)
** Current wind speed in m/s (hover to see current wind gust speed)